Location: Schommer Observatory
(40.5200°N, 74.4500°W)
Time: 06:26:41
(UTC-04:00)

Hubble Space Telescope - Visible Passes

Search period start: 23 March 2017 00:00
Search period end: 02 April 2017 00:00
Orbit: 538 x 542 km, 28.5° (Epoch: 21 March)

Date Brightness Start Highest point End Pass type
(mag) Time Alt. Az. Time Alt. Az. Time Alt. Az.
27 Mar 3.2 05:15:11 10° S 05:15:57 10° SSE 05:16:43 10° SSE visible
28 Mar 3.1 05:05:31 12° S 05:05:48 12° SSE 05:07:22 10° SE visible
29 Mar 3.1 04:56:01 13° SSE 04:56:01 13° SSE 04:57:37 10° SE visible
30 Mar 3.1 04:46:31 13° SSE 04:46:31 13° SSE 04:47:45 10° SE visible
31 Mar 3.2 04:37:02 12° SSE 04:37:02 12° SSE 04:37:46 10° SE visible
31 Mar 3.0 06:13:52 10° SW 06:15:54 13° S 06:17:56 10° SSE visible
01 Apr 3.4 04:27:34 10° SE 04:27:34 10° SE 04:27:43 10° SE visible
01 Apr 3.0 06:04:05 10° SW 06:05:45 12° SSW 06:07:27 10° SSE visible
